DateTimeUTC,F1_A11,F1_S11,BsB_S11,BsG_S11,BsR_S11,BbsB_S11,BbsG_S11,BbsR_S11,BaB_A11,BaG_A11,BaR_A11,T_S11,U_S11,P_S11,T1_A11
2020-08-10T00:00:00Z,00000380,20000600,,,,,,,,,,23.8,02.2,0666.3,30.9
2020-08-10T00:01:00Z,00000380,20000600,,,,,,,,,,23.8,02.2,0666.3,30.9
2020-08-10T00:02:00Z,00000380,20000600,,,,,,,,,,23.8,02.2,0666.3,30.9
2020-08-10T00:03:00Z,00000380,60000600,,,,,,,,,,23.8,02.2,0666.3,30.9
2020-08-10T00:04:00Z,00000380,40000600,0000.49,0000.28,0000.41,-000.10,-000.09,-000.29,-000.11,0000.12,0000.08,23.5,02.2,0667.2,30.9
2020-08-10T00:05:00Z,00000380,00000600,0001.28,0000.62,0000.30,0000.06,0000.14,-000.40,0000.07,-000.04,0000.00,23.4,02.3,0667.3,30.9
2020-08-10T00:06:00Z,00000380,00000600,0000.02,0001.26,0000.51,0000.38,0000.13,-000.04,0000.11,-000.02,0000.06,23.4,02.2,0667.3,30.9
2020-08-10T00:07:00Z,00000380,00000600,0000.50,0000.98,0001.02,0000.60,0000.04,0000.18,-000.09,0000.04,-000.10,23.4,02.3,0667.3,30.9
2020-08-10T00:08:00Z,00000380,00000600,0000.06,0001.00,0000.21,-000.18,0000.41,-000.03,0000.15,0000.00,0000.16,23.4,02.3,0667.3,30.9
2020-08-10T00:09:00Z,00000380,00000600,-000.94,0000.69,0000.09,0000.77,0000.08,-000.26,0000.05,0000.15,-000.03,23.3,02.3,0667.3,30.8
2020-08-10T00:10:00Z,00000380,00000600,0001.17,0000.95,0000.52,0000.97,0000.25,-000.06,0000.13,-000.11,0000.02,23.3,02.3,0667.3,30.8
2020-08-10T00:11:00Z,00000380,00000600,-000.22,0000.66,0000.51,-000.61,-000.02,0000.03,-000.01,-000.04,0000.05,23.4,02.3,0667.3,30.8
2020-08-10T00:12:00Z,00000380,00000600,-000.64,0001.10,0000.65,0000.91,0000.31,-000.04,0000.11,0000.11,0000.15,23.4,02.3,0667.3,30.8
2020-08-10T00:13:00Z,00000380,00000600,0000.63,0001.61,0000.86,-000.12,-000.20,-000.01,-000.04,0000.18,-000.12,23.4,02.2,0667.3,30.9
2020-08-10T00:14:00Z,00000380,00000600,0001.70,0001.58,0000.61,0000.42,-000.27,0000.08,0000.06,-000.00,0000.28,23.5,02.3,0667.3,30.9
2020-08-10T00:15:00Z,00000380,00000600,0001.69,0001.28,0000.70,0000.54,0000.34,-000.43,0000.05,0000.06,0000.01,23.5,02.2,0667.3,30.9
2020-08-10T00:16:00Z,00000380,00000600,0000.89,0000.75,0000.17,0000.01,0000.09,-000.01,0000.06,-000.02,-000.08,23.4,02.3,0667.4,30.9
2020-08-10T00:17:00Z,00000380,00000600,0000.08,0000.58,0000.48,0000.25,0000.10,-000.02,0000.05,0000.02,-000.07,23.4,02.3,0667.3,30.9
2020-08-10T00:18:00Z,00000380,00000600,0000.38,0000.88,0000.38,0000.16,0000.39,-000.31,0000.24,0000.19,0000.19,23.4,02.4,0667.4,30.9
2020-08-10T00:19:00Z,00000380,00000600,0000.85,0000.59,0000.44,0000.10,0000.05,-000.26,0000.03,0000.09,0000.09,23.4,02.5,0667.3,30.9
2020-08-10T00:20:00Z,00000380,00000600,0000.63,0001.57,0000.82,0000.68,0000.25,-000.09,0000.03,-000.12,-000.00,23.3,02.5,0667.3,30.9
2020-08-10T00:21:00Z,00000380,00000600,0000.13,0001.99,0000.24,0000.30,0000.03,-000.12,0000.01,0000.18,-000.03,23.3,02.5,0667.3,30.9
2020-08-10T00:22:00Z,00000380,00000600,0001.14,0001.45,0000.73,0000.74,0000.21,0000.25,0000.22,0000.06,0000.20,23.3,02.5,0667.3,30.8
2020-08-10T00:23:00Z,00000380,00000600,0001.88,0000.34,0000.48,0000.57,0000.20,-000.20,0000.04,0000.12,0000.00,23.3,02.6,0667.3,30.8
2020-08-10T00:24:00Z,00000380,00000600,0001.48,0001.32,0000.20,0000.32,0000.06,0000.02,0000.04,-000.07,0000.04,23.2,02.7,0667.3,30.8
2020-08-10T00:25:00Z,00000380,00000600,0000.39,0000.82,0000.45,0001.01,-000.21,-000.36,0000.16,0000.03,0000.05,23.3,02.6,0667.3,30.8
2020-08-10T00:26:00Z,00000380,00000600,-000.07,0001.31,0000.56,0000.66,-000.03,0000.21,0000.10,0000.24,0000.07,23.3,02.7,0667.3,30.8
2020-08-10T00:27:00Z,00000380,00000600,0000.77,0000.96,0000.58,0001.00,0000.19,-000.14,0000.12,-000.02,0000.11,23.3,02.7,0667.3,30.8
2020-08-10T00:28:00Z,00000380,00000600,0001.63,0001.27,0000.93,-000.02,-000.08,0000.19,0000.16,0000.24,-000.03,23.3,02.7,0667.3,30.9
2020-08-10T00:29:00Z,00000380,00000600,0000.95,0000.88,0000.31,0000.05,0000.24,-000.02,-000.07,0000.12,0000.23,23.4,02.8,0667.3,30.9
2020-08-10T00:30:00Z,00000380,00000600,0000.51,0000.75,0000.40,0001.24,0000.50,0000.25,0000.14,-000.05,0000.03,23.4,02.8,0667.4,30.9
2020-08-10T00:31:00Z,00000380,00000600,0001.53,0000.83,0000.32,0000.71,0000.08,0000.06,-000.16,0000.02,-000.10,23.4,02.7,0667.4,30.9
2020-08-10T00:32:00Z,00000380,00000600,0000.12,0000.78,0000.24,-000.08,0000.15,-000.14,0000.13,-000.03,0000.01,23.4,02.7,0667.3,30.9
2020-08-10T00:33:00Z,00000380,00000600,0001.17,0000.68,0000.10,0000.88,-000.05,0000.12,-000.01,0000.15,0000.01,23.4,02.8,0667.3,30.9
2020-08-10T00:34:00Z,00000380,00000600,0000.31,0000.84,0000.32,-000.21,0000.19,-000.11,0000.18,-000.00,-000.06,23.3,02.8,0667.3,30.9
2020-08-10T00:35:00Z,00000380,00000600,-000.76,0000.92,0000.21,0000.42,0000.20,-000.01,-000.04,0000.05,0000.11,23.3,02.9,0667.3,30.9
2020-08-10T00:36:00Z,00000380,00000600,-000.19,0001.23,0000.53,-000.02,0000.05,-000.04,0000.12,0000.00,0000.18,23.3,02.9,0667.4,30.9
2020-08-10T00:37:00Z,00000380,00000600,-000.33,0001.19,0000.30,0001.26,-000.03,0000.13,0000.05,0000.26,0000.02,23.3,02.9,0667.4,30.9
2020-08-10T00:38:00Z,00000380,00000600,0000.77,0001.00,0000.16,-000.15,0000.21,-000.23,0000.19,0000.12,0000.01,23.3,03.0,0667.3,30.9
2020-08-10T00:39:00Z,00000380,00000600,-000.61,0001.32,0000.13,0000.96,0000.18,-000.61,0000.02,-000.25,-000.07,23.3,03.0,0667.3,30.9
2020-08-10T00:40:00Z,00000380,00000600,0000.46,0000.38,0000.97,0000.47,0000.42,0000.17,0000.10,0000.12,0000.20,23.2,02.9,0667.3,30.8
2020-08-10T00:41:00Z,00000380,00000600,0001.61,0000.95,0000.24,0001.14,0000.24,-000.05,0000.27,0000.09,-000.06,23.3,03.0,0667.3,30.8
2020-08-10T00:42:00Z,00000380,00000600,0000.72,0001.35,0000.21,-000.07,0000.23,-000.04,0000.03,0000.08,0000.28,23.3,03.1,0667.3,30.8
2020-08-10T00:43:00Z,00000380,00000600,0000.52,0000.42,0000.82,0000.23,-000.07,0000.23,0000.08,0000.23,0000.09,23.3,03.1,0667.4,30.9
2020-08-10T00:44:00Z,00000380,00000600,0000.97,0000.87,0000.38,0001.07,0000.01,-000.47,-000.02,0000.13,0000.04,23.4,03.0,0667.4,30.9
2020-08-10T00:45:00Z,00000380,00000600,0000.32,0000.57,0000.32,0000.29,-000.05,0000.04,-000.15,-000.18,-000.04,23.4,03.1,0667.4,30.9
2020-08-10T00:46:00Z,00000380,00000600,0001.42,0001.04,0000.88,0000.69,0000.16,-000.51,0000.16,0000.10,0000.02,23.4,03.0,0667.5,30.9
2020-08-10T00:47:00Z,00000380,00000600,0000.36,0001.75,0000.86,0000.17,0000.40,0000.09,-000.05,0000.07,-000.16,23.4,03.0,0667.4,30.9
2020-08-10T00:48:00Z,00000380,00000600,0000.85,0001.16,0001.03,-000.33,0000.04,0000.21,0000.03,-000.08,0000.06,23.4,03.0,0667.4,30.9
2020-08-10T00:49:00Z,00000380,00000600,-000.27,0000.80,0000.32,0000.06,0000.21,-000.21,0000.10,-000.00,0000.03,23.3,03.0,0667.4,30.9
2020-08-10T00:50:00Z,00000380,00000600,0001.35,0001.21,0000.39,-000.08,0000.57,-000.20,-000.03,0000.11,0000.06,23.3,03.0,0667.4,30.9
2020-08-10T00:51:00Z,00000380,00000600,0000.82,0000.62,0000.62,-000.01,-000.03,-000.01,0000.14,-000.17,0000.04,23.3,03.0,0667.4,30.9
2020-08-10T00:52:00Z,00000380,00000600,0000.98,0000.95,0000.37,0000.21,0000.49,0000.02,-000.08,0000.17,0000.01,23.3,03.0,0667.4,30.9
2020-08-10T00:53:00Z,00000380,00000600,0001.31,0001.44,0000.17,0000.01,-000.00,-000.18,0000.17,0000.14,-000.01,23.3,03.0,0667.4,30.9
2020-08-10T00:54:00Z,00000380,00000600,0000.21,0000.87,0000.66,0001.36,-000.28,-000.30,-000.05,-000.21,-000.06,23.3,03.0,0667.4,30.9
2020-08-10T00:55:00Z,00000380,00000600,0001.02,0001.46,0000.58,0000.31,0000.01,0000.21,0000.16,0000.12,0000.29,23.3,03.0,0667.4,30.8
2020-08-10T00:56:00Z,00000380,00000600,0001.32,0000.91,0000.31,0000.56,0000.24,-000.21,-000.03,0000.21,0000.02,23.3,03.0,0667.3,30.8
2020-08-10T00:57:00Z,00000380,40000600,,,,,,,,,,23.3,03.0,0667.3,30.9
2020-08-10T00:58:00Z,00000380,60000600,,,,,,,,,,23.5,02.8,0666.4,30.9
2020-08-10T00:59:00Z,00000380,20000600,,,,,,,,,,23.6,02.8,0666.4,30.9
2020-08-10T01:00:00Z,00000380,20000600,,,,,,,,,,23.7,02.8,0666.4,30.9
2020-08-10T01:01:00Z,00000380,20000600,,,,,,,,,,23.7,02.8,0666.4,30.9
2020-08-10T01:02:00Z,00000380,20000600,,,,,,,,,,23.7,02.8,0666.4,30.9
2020-08-10T01:03:00Z,00000380,60000600,,,,,,,,,,23.7,02.8,0666.4,30.9
2020-08-10T01:04:00Z,00000380,40000600,0000.16,0000.35,0000.52,-000.76,0000.04,-000.13,0000.13,0000.11,0000.15,23.4,03.0,0667.3,30.9
2020-08-10T01:05:00Z,00000380,00000600,0001.34,0001.16,0000.20,0000.14,0000.22,0000.27,-000.00,0000.02,-000.11,23.4,03.1,0667.3,30.9
2020-08-10T01:06:00Z,00000380,00000600,0000.79,0000.90,-000.05,0000.25,0000.31,0000.34,-000.01,-000.09,0000.10,23.4,03.2,0667.3,30.9
2020-08-10T01:07:00Z,00000380,00000600,0000.94,0000.64,0000.21,-000.10,0000.19,0000.30,0000.09,0000.11,0000.06,23.3,03.1,0667.3,30.9
2020-08-10T01:08:00Z,00000380,00000600,0000.97,0000.90,0000.43,-001.25,0000.17,0000.19,0000.14,0000.08,-000.01,23.3,03.1,0667.3,30.8
2020-08-10T01:09:00Z,00000380,00000600,0002.56,0000.53,0000.25,-000.31,0000.04,0000.15,0000.09,-000.07,0000.13,23.3,03.2,0667.3,30.8
2020-08-10T01:10:00Z,00000380,00000600,0000.63,0001.06,0000.23,0000.11,0000.12,0000.08,0000.07,0000.11,-000.05,23.3,03.2,0667.4,30.8
2020-08-10T01:11:00Z,00000380,00000600,0001.46,0001.22,0000.38,-000.80,0000.07,0000.42,0000.04,0000.14,0000.22,23.3,03.1,0667.4,30.8
2020-08-10T01:12:00Z,00000380,00000600,0000.26,0001.07,0000.12,-000.56,0000.30,0000.45,0000.04,0000.03,-000.04,23.3,03.2,0667.4,30.8
2020-08-10T01:13:00Z,00000380,00000600,-000.06,0001.12,-000.16,-000.41,0000.07,0000.46,0000.09,0000.06,0000.05,23.4,03.1,0667.4,30.9
2020-08-10T01:14:00Z,00000380,00000600,0000.82,0000.42,0000.33,0000.38,0000.32,0000.29,-000.08,-000.15,0000.03,23.4,03.1,0667.4,30.9
2020-08-10T01:15:00Z,00000380,00000600,0001.58,0000.97,-000.08,-000.48,-000.10,0000.25,0000.04,0000.10,-000.09,23.4,03.1,0667.4,30.9
2020-08-10T01:16:00Z,00000380,00000600,0000.10,0000.96,0000.47,-000.37,0000.38,0000.41,0000.02,0000.01,0000.09,23.4,03.1,0667.4,30.9
2020-08-10T01:17:00Z,00000380,00000600,0001.50,0000.42,0000.42,0000.11,0000.24,0000.43,0000.16,0000.09,0000.15,23.4,03.1,0667.3,30.9
2020-08-10T01:18:00Z,00000380,00000600,0001.66,0000.76,0000.28,0000.00,0000.11,0000.04,-000.04,0000.13,-000.06,23.3,03.1,0667.3,30.9
2020-08-10T01:19:00Z,00000380,00000600,0001.05,0001.27,0000.35,-000.39,0000.51,0000.06,0000.11,0000.03,0000.09,23.3,03.1,0667.3,30.9
2020-08-10T01:20:00Z,00000380,00000600,0000.21,0000.41,0000.36,-000.02,0000.13,0000.38,0000.11,0000.10,-000.03,23.3,03.1,0667.3,30.9
2020-08-10T01:21:00Z,00000380,00000600,0001.28,0000.49,0000.43,-000.70,0000.13,0000.44,0000.06,0000.16,0000.15,23.3,03.2,0667.2,30.9
2020-08-10T01:22:00Z,00000380,00000600,0001.15,0000.87,0000.29,-000.84,0000.29,0000.28,0000.01,-000.00,-000.08,23.2,03.2,0667.2,30.8
2020-08-10T01:23:00Z,00000380,00000600,0001.78,0001.36,0000.79,0000.76,-000.03,0000.25,0000.06,-000.03,0000.05,23.2,03.2,0667.2,30.8
2020-08-10T01:24:00Z,00000380,00000600,0001.38,0000.73,0000.15,-000.20,0000.35,0000.44,0000.05,-000.01,0000.17,23.2,03.2,0667.2,30.8
2020-08-10T01:25:00Z,00000380,00000600,0000.25,0001.25,0000.37,0000.10,0000.24,0000.32,0000.10,-000.01,0000.02,23.2,03.2,0667.2,30.8
2020-08-10T01:26:00Z,00000380,00000600,0001.33,0000.67,0001.00,0000.20,0000.04,0000.78,-000.01,0000.15,0000.09,23.2,03.2,0667.2,30.8
2020-08-10T01:27:00Z,00000380,00000600,0002.61,0000.73,-000.00,-000.02,0000.19,0000.96,0000.07,0000.12,0000.06,23.2,03.3,0667.3,30.8
2020-08-10T01:28:00Z,00000380,00000600,0000.67,0001.01,0000.31,-000.05,0000.15,0000.46,0000.10,0000.11,-000.01,23.3,03.2,0667.3,30.9
2020-08-10T01:29:00Z,00000380,00000600,0002.14,0000.60,0000.35,0000.63,0000.03,0000.15,0000.03,-000.01,0000.16,23.3,03.2,0667.3,30.9
2020-08-10T01:30:00Z,00000380,00000600,0001.15,0000.88,0000.31,-000.91,0000.17,0000.56,-000.04,-000.03,-000.14,23.3,03.3,0667.4,30.9
2020-08-10T01:31:00Z,00000380,00000600,0000.90,0000.63,0000.07,0000.16,0000.04,0000.43,0000.03,0000.10,0000.07,23.3,03.2,0667.3,30.9
2020-08-10T01:32:00Z,00000380,00000600,0000.84,0000.43,0000.38,-001.32,-000.16,0000.28,0000.19,-000.08,-000.02,23.3,03.2,0667.3,30.9
2020-08-10T01:33:00Z,00000380,00000600,0001.40,0001.19,0000.34,-000.18,0000.61,0000.58,-000.23,0000.01,0000.08,23.3,03.2,0667.3,30.9
2020-08-10T01:34:00Z,00000380,00000600,0002.46,0000.60,-000.20,-000.31,0000.17,0000.23,0000.18,0000.09,0000.05,23.2,03.2,0667.2,30.9
2020-08-10T01:35:00Z,00000380,00000600,0001.71,0000.74,0000.41,-000.73,0000.11,0000.46,0000.06,0000.20,0000.04,23.2,03.3,0667.3,30.9
2020-08-10T01:36:00Z,00000380,00000600,0001.71,0001.05,0000.77,0000.92,0000.18,0000.50,-000.00,-000.11,0000.11,23.2,03.3,0667.3,30.9
2020-08-10T01:37:00Z,00000380,00000600,0001.22,0000.51,-000.02,-000.34,0000.61,0000.13,0000.14,0000.17,-000.05,23.2,03.3,0667.3,30.9
2020-08-10T01:38:00Z,00000380,00000600,0000.95,0000.82,0000.78,-000.85,0000.35,0000.27,0000.01,0000.01,-000.03,23.2,03.3,0667.3,30.9
2020-08-10T01:39:00Z,00000380,00000600,0000.89,0000.87,-000.09,-000.37,0000.33,0000.11,0000.13,0000.10,0000.13,23.1,03.3,0667.3,30.8
2020-08-10T01:40:00Z,00000380,00000600,0002.10,0000.66,-000.01,-000.11,0000.52,0000.63,0000.07,-000.05,0000.03,23.1,03.4,0667.3,30.8
2020-08-10T01:41:00Z,00000380,00000600,0001.28,0000.62,0000.13,-000.60,0000.21,0000.35,0000.05,0000.10,0000.15,23.2,03.3,0667.3,30.8
2020-08-10T01:42:00Z,00000380,00000600,0000.40,0000.63,0000.28,0000.21,0000.15,0000.28,0000.22,0000.11,0000.05,23.2,03.4,0667.2,30.8
2020-08-10T01:43:00Z,00000380,00000600,0001.77,0000.81,0000.19,-000.74,0000.24,0000.37,-000.02,0000.11,0000.05,23.2,03.5,0667.3,30.9
2020-08-10T01:44:00Z,00000380,00000600,0000.73,0000.63,-000.05,0000.20,0000.10,0000.37,0000.14,0000.09,0000.17,23.3,03.4,0667.3,30.9
2020-08-10T01:45:00Z,00000380,00000600,0002.56,0000.60,0000.06,-000.19,0000.40,0000.13,-000.04,-000.01,0000.07,23.3,03.4,0667.3,30.9
2020-08-10T01:46:00Z,00000380,00000600,0000.96,0000.86,0000.30,0000.08,-000.28,0000.00,0000.12,0000.02,-000.10,23.3,03.4,0667.3,30.9
2020-08-10T01:47:00Z,00000380,00000600,0001.25,0000.86,0000.59,0000.37,0000.18,0000.81,-000.08,0000.01,-000.09,23.3,03.4,0667.3,30.9
2020-08-10T01:48:00Z,00000380,00000600,0003.04,0000.75,0000.30,-000.07,0000.44,0000.73,0000.06,0000.19,0000.23,23.3,03.4,0667.3,30.9
2020-08-10T01:49:00Z,00000380,00000600,0000.73,0000.61,0000.26,0000.14,0000.04,0000.40,-000.02,-000.11,0000.04,23.2,03.4,0667.3,30.9
2020-08-10T01:50:00Z,00000380,00000600,0001.91,0000.24,0000.02,-000.01,0000.07,0000.42,0000.14,0000.17,-000.11,23.2,03.4,0667.3,30.8
2020-08-10T01:51:00Z,00000380,00000600,0001.82,0001.03,0000.39,0000.44,0000.50,0000.34,-000.09,-000.05,0000.06,23.2,03.4,0667.3,30.8
2020-08-10T01:52:00Z,00000380,00000600,0001.63,0000.82,0000.31,-000.05,0000.23,0000.66,0000.20,0000.12,0000.08,23.2,03.4,0667.2,30.8
2020-08-10T01:53:00Z,00000380,00000600,0001.47,0000.10,0000.49,-000.46,0000.44,0000.52,0000.03,0000.07,0000.09,23.2,03.5,0667.2,30.8
2020-08-10T01:54:00Z,00000380,00000600,0001.44,0000.61,0000.24,-000.59,0000.31,0000.20,0000.01,0000.03,-000.00,23.1,03.5,0667.2,30.8
2020-08-10T01:55:00Z,00000380,00000600,0001.33,0000.24,0000.55,-000.24,0000.28,0000.55,0000.11,-000.08,0000.11,23.1,03.4,0667.2,30.8
2020-08-10T01:56:00Z,00000380,00000600,0001.69,0001.26,0000.50,-000.36,0000.32,0000.04,0000.15,0000.26,0000.10,23.2,03.5,0667.2,30.8
2020-08-10T01:57:00Z,00000380,40000600,,,,,,,,,,23.2,03.5,0667.2,30.8
2020-08-10T01:58:00Z,00000380,60000600,,,,,,,,,,23.4,03.3,0666.3,30.9
2020-08-10T01:59:00Z,00000380,20000600,,,,,,,,,,23.5,03.3,0666.3,30.9
2020-08-10T02:00:00Z,00000380,20000600,,,,,,,,,,23.5,03.3,0666.3,30.9
2020-08-10T02:01:00Z,00000380,20000600,,,,,,,,,,23.5,03.3,0666.3,30.9
2020-08-10T02:02:00Z,00000380,20000600,,,,,,,,,,23.6,03.3,0666.3,30.9
2020-08-10T02:03:00Z,00000380,60000600,,,,,,,,,,23.5,03.3,0666.3,30.9
2020-08-10T02:04:00Z,00000380,40000600,0001.76,0000.84,0000.21,0000.80,-000.01,0000.04,0000.25,0000.14,0000.12,23.3,03.4,0667.2,30.9
2020-08-10T02:05:00Z,00000380,00000600,0001.56,0000.83,0000.70,0000.64,-000.06,0000.12,-000.13,0000.09,-000.11,23.3,03.4,0667.3,30.9
2020-08-10T02:06:00Z,00000380,00000600,0001.23,0000.53,0000.92,-000.09,-000.10,-000.33,0000.11,0000.03,0000.01,23.2,03.4,0667.2,30.9
2020-08-10T02:07:00Z,00000380,00000600,0001.62,0001.26,0000.75,-000.01,0000.09,0000.08,-000.02,0000.10,0000.08,23.2,03.5,0667.2,30.9
2020-08-10T02:08:00Z,00000380,00000600,0001.13,0000.52,0000.46,0000.09,-000.24,0000.13,0000.17,0000.01,0000.04,23.2,03.6,0667.2,30.9
2020-08-10T02:09:00Z,00000380,00000600,0001.99,0000.37,0000.57,0000.37,0000.18,-000.11,-000.04,-000.01,0000.06,23.2,03.5,0667.1,30.8
2020-08-10T02:10:00Z,00000380,00000600,0002.09,0000.69,0000.98,-000.24,0000.28,-000.07,0000.08,0000.12,0000.14,23.2,03.5,0667.1,30.8
2020-08-10T02:11:00Z,00000380,00000600,0001.62,0000.29,0000.59,0000.75,0000.06,0000.11,0000.16,0000.00,-000.04,23.2,03.5,0667.2,30.8
2020-08-10T02:12:00Z,00000380,00000600,0001.23,0000.43,-000.06,-000.06,0000.27,-000.21,0000.01,0000.33,0000.14,23.2,03.5,0667.2,30.8
2020-08-10T02:13:00Z,00000380,00000600,0001.55,0000.56,0000.77,0000.94,0000.00,-000.02,-000.03,-000.06,0000.15,23.3,03.5,0667.2,30.9
2020-08-10T02:14:00Z,00000380,00000600,0001.46,0000.48,0000.30,0001.62,0000.24,-000.39,0000.08,-000.08,-000.05,23.3,03.5,0667.2,30.9
2020-08-10T02:15:00Z,00000380,00000600,0001.35,0000.77,0000.31,0000.58,0000.24,0000.01,0000.04,0000.12,0000.03,23.3,03.4,0667.2,30.9
2020-08-10T02:16:00Z,00000380,00000600,0002.81,0000.70,0000.33,-000.17,0000.87,0000.19,-000.14,-000.07,0000.01,23.3,03.4,0667.2,30.9
2020-08-10T02:17:00Z,00000380,00000600,0002.07,0000.56,-000.23,0000.21,-000.12,-000.12,0000.11,-000.08,-000.11,23.2,03.4,0667.2,30.9
2020-08-10T02:18:00Z,00000380,00000600,0001.12,0000.44,0000.65,0000.17,0000.33,-000.41,-000.00,0000.22,0000.07,23.2,03.4,0667.2,30.9
2020-08-10T02:19:00Z,00000380,00000600,0001.68,0000.47,0000.54,-000.71,-000.02,-000.12,0000.07,-000.02,0000.01,23.2,03.4,0667.2,30.8
2020-08-10T02:20:00Z,00000380,00000600,0001.26,0000.47,0000.93,0000.45,0000.09,0000.06,-000.03,-000.04,0000.14,23.2,03.4,0667.2,30.8
2020-08-10T02:21:00Z,00000380,00000600,0000.80,0001.00,0000.78,-000.09,-000.32,-000.30,0000.05,-000.13,-000.05,23.1,03.4,0667.2,30.8
2020-08-10T02:22:00Z,00000380,00000600,0002.01,0000.23,0000.81,0000.24,-000.03,-000.09,0000.08,0000.27,0000.06,23.1,03.4,0667.1,30.9
2020-08-10T02:23:00Z,00000380,00000600,0001.87,0000.82,0000.05,0000.34,0000.18,-000.28,-000.01,-000.06,0000.00,23.1,03.4,0667.1,30.8
2020-08-10T02:24:00Z,00000380,00000600,0001.41,0000.11,0000.35,0001.31,0000.08,-000.22,-000.01,0000.11,-000.09,23.1,03.4,0667.1,30.8
2020-08-10T02:25:00Z,00000380,00000600,0000.79,0000.85,0000.75,0000.44,0000.23,0000.15,0000.03,-000.03,0000.22,23.1,03.4,0667.1,30.8
2020-08-10T02:26:00Z,00000380,00000600,0001.91,0000.45,0000.37,0000.37,0000.65,-000.13,0000.11,0000.16,0000.11,23.1,03.4,0667.1,30.8
2020-08-10T02:27:00Z,00000380,00000600,0001.26,0000.75,0000.56,-000.21,0000.23,0000.26,0000.25,0000.05,0000.08,23.1,03.4,0667.1,30.8
2020-08-10T02:28:00Z,00000380,00000600,0001.73,0000.25,0000.22,0000.71,0000.33,-000.02,-000.12,0000.17,0000.01,23.2,03.4,0667.2,30.8
2020-08-10T02:29:00Z,00000380,00000600,0001.18,0000.69,0000.29,0000.50,0000.12,-000.05,0000.09,0000.06,0000.03,23.2,03.4,0667.2,30.9
2020-08-10T02:30:00Z,00000380,00000600,0001.15,0000.83,0000.30,0000.82,-000.10,-000.15,-000.07,-000.08,0000.01,23.2,03.4,0667.2,30.9
2020-08-10T02:31:00Z,00000380,00000600,0001.41,0000.52,0000.77,-000.23,-000.20,-000.16,0000.10,0000.11,0000.16,23.2,03.3,0667.2,30.9
2020-08-10T02:32:00Z,00000380,00000600,0000.47,0000.28,0000.57,0000.30,-000.14,-000.09,-000.11,-000.07,-000.26,23.2,03.3,0667.2,30.9
2020-08-10T02:33:00Z,00000380,00000600,0001.39,0000.77,0000.38,0000.01,-000.17,0000.10,0000.06,0000.05,0000.17,23.2,03.3,0667.2,30.9
2020-08-10T02:34:00Z,00000380,00000600,0001.72,0000.68,0000.25,0000.21,0000.11,-000.19,-000.04,-000.12,-000.10,23.2,03.3,0667.1,30.9
2020-08-10T02:35:00Z,00000380,00000600,0001.60,0000.72,0000.44,-000.39,0000.02,-000.21,-000.03,0000.00,0000.15,23.1,03.2,0667.1,30.9
2020-08-10T02:36:00Z,00000380,00000600,0001.35,0001.08,0000.47,0000.52,0000.07,-000.12,0000.13,0000.05,-000.09,23.1,03.2,0667.1,30.8
2020-08-10T02:37:00Z,00000380,00000600,0001.59,0000.78,0000.37,0000.89,-000.12,-000.11,-000.09,-000.01,-000.03,23.1,03.2,0667.1,30.8
2020-08-10T02:38:00Z,00000380,00000600,0001.61,0000.63,-000.21,0000.81,0000.33,-000.12,-000.01,0000.06,0000.17,23.1,03.2,0667.0,30.8
2020-08-10T02:39:00Z,00000380,00000600,0001.66,0000.89,0000.42,-000.19,-000.10,0000.03,0000.02,-000.02,-000.06,23.1,03.2,0667.0,30.8
2020-08-10T02:40:00Z,00000380,00000600,0001.50,0000.66,0000.71,0000.49,0000.37,0000.03,0000.14,0000.00,0000.07,23.1,03.2,0667.0,30.8
2020-08-10T02:41:00Z,00000380,00000600,0001.50,0000.11,0000.85,0000.30,0000.27,0000.14,-000.05,-000.02,0000.04,23.1,03.1,0667.0,30.8
2020-08-10T02:42:00Z,00000380,00000600,0001.44,0000.63,0000.79,0000.53,0000.26,-000.08,0000.09,0000.20,0000.03,23.1,03.1,0667.1,30.8
2020-08-10T02:43:00Z,00000380,00000600,0000.87,0000.40,0000.73,0000.41,-000.27,0000.01,-000.06,0000.07,-000.06,23.1,03.0,0667.1,30.9
2020-08-10T02:44:00Z,00000380,00000600,0000.92,0000.50,0000.49,0000.54,0000.28,-000.01,0000.02,0000.00,0000.07,23.2,03.0,0667.2,30.9
2020-08-10T02:45:00Z,00000380,00000600,0000.29,0000.75,0000.48,-000.40,0000.27,0000.03,0000.00,0000.04,-000.05,23.2,02.9,0667.2,30.9
2020-08-10T02:46:00Z,00000380,00000600,0001.56,0000.92,0000.34,0000.04,0000.37,0000.02,-000.09,-000.17,0000.08,23.2,02.9,0667.2,30.9
2020-08-10T02:47:00Z,00000380,00000600,0000.96,0000.60,0000.82,0000.54,0000.13,-000.32,-000.07,0000.16,-000.03,23.2,02.9,0667.2,30.9
2020-08-10T02:48:00Z,00000380,00000600,0002.04,0000.66,0000.50,0000.31,-000.11,-000.24,-000.04,-000.18,0000.02,23.2,02.8,0667.2,30.9
2020-08-10T02:49:00Z,00000380,00000600,0000.82,0000.69,0001.03,-000.44,0000.32,-000.01,0000.06,0000.07,-000.04,23.1,02.8,0667.1,30.9
2020-08-10T02:50:00Z,00000380,00000600,0000.49,0000.73,0000.18,0000.05,0000.08,-000.22,-000.00,-000.04,-000.11,23.1,02.8,0667.1,30.9
2020-08-10T02:51:00Z,00000380,00000600,0000.12,0000.57,0000.59,-000.17,0000.11,0000.09,-000.06,-000.05,0000.10,23.1,02.7,0667.1,30.9
2020-08-10T02:52:00Z,00000380,00000600,0001.08,0000.14,0000.58,0000.39,0000.34,-000.21,0000.14,0000.05,-000.01,23.1,02.7,0667.1,30.8
2020-08-10T02:53:00Z,00000380,00000600,0000.71,0000.60,0000.93,0000.86,0000.04,0000.02,-000.18,-000.05,-000.07,23.1,02.6,0667.1,30.8
2020-08-10T02:54:00Z,00000380,00000600,0001.90,0000.54,-000.21,0000.22,-000.13,-000.55,-000.01,-000.04,-000.02,23.0,02.6,0667.1,30.8
2020-08-10T02:55:00Z,00000380,00000600,0002.02,0001.09,0000.85,0000.49,0000.16,0000.30,0000.10,0000.08,0000.20,23.1,02.6,0667.1,30.8
2020-08-10T02:56:00Z,00000380,00000600,0000.59,0000.52,0000.92,-000.36,-000.11,0000.06,0000.15,-000.12,-000.02,23.1,02.5,0667.1,30.8
2020-08-10T02:57:00Z,00000380,40000600,,,,,,,,,,23.1,02.4,0667.2,30.8
2020-08-10T02:58:00Z,00000380,60000600,,,,,,,,,,23.3,02.6,0666.1,30.8
2020-08-10T02:59:00Z,00000380,20000600,,,,,,,,,,23.4,02.6,0666.2,30.9
2020-08-10T03:00:00Z,00000380,20000600,,,,,,,,,,23.4,02.4,0666.2,30.9
2020-08-10T03:01:00Z,00000380,20000600,,,,,,,,,,23.5,02.4,0666.2,30.9
2020-08-10T03:02:00Z,00000380,20000600,,,,,,,,,,23.5,02.3,0666.2,30.9
2020-08-10T03:03:00Z,00000380,60000600,,,,,,,,,,23.5,02.2,0666.2,30.9
2020-08-10T03:04:00Z,00000380,40000600,0001.58,0000.81,-000.01,0000.69,-000.12,0000.23,0000.00,0000.09,-000.06,23.3,02.1,0667.1,30.8
2020-08-10T03:05:00Z,00000380,00000600,0001.51,0000.69,0000.27,0000.83,0000.16,0000.55,0000.11,-000.08,-000.01,23.2,02.1,0667.1,30.8
2020-08-10T03:06:00Z,00000380,00000600,0002.50,0000.52,0000.20,0000.72,-000.08,0000.09,-000.10,-000.10,0000.08,23.2,02.1,0667.2,30.8
2020-08-10T03:07:00Z,00000380,00000600,0002.23,0000.70,0000.21,0000.03,-000.01,0000.20,0000.10,0000.08,0000.06,23.1,02.1,0667.1,30.8
2020-08-10T03:08:00Z,00000380,00000600,0000.97,0001.24,0000.56,-000.27,0000.38,0000.21,-000.16,-000.03,-000.08,23.1,02.1,0667.1,30.8
2020-08-10T03:09:00Z,00000380,00000600,0002.32,0001.05,0000.20,0000.79,0000.52,0000.05,0000.09,0000.11,0000.13,23.1,02.1,0667.1,30.8
2020-08-10T03:10:00Z,00000380,00000600,0002.21,0000.54,0000.19,0000.68,0000.28,0000.22,-000.08,-000.09,0000.09,23.1,02.0,0667.1,30.8